Zurück zum Katalog

BEIDOU 2

AktivNavigationMEO
NORAD 31115·PAYLOAD·🇨🇳 China

Gestartet Apr 13, 2007 von Xichang Satellite Launch Center

Loading…

Nächste Überflüge (nächste 24 Stunden)

TLE

AktuellSource: Space-Track

Epoche: Sep 13, 2026, 08:06 UTC

1 31115U 07011A   26256.33750506 -.00000002  00000-0  00000-0 0  9993
2 31115  50.9070 216.3500 0002548 346.0125  13.9351  1.77349358 77712

Verfolge BEIDOU 2 in Echtzeit mit AllMySat

Download on the App Store